Time,TemperatureF,DewpointF,PressureIn,WindDirection,WindDirectionDegrees,WindSpeedMPH,WindSpeedGustMPH,Humidity,HourlyPrecipIn,Conditions,Clouds,dailyrainin,SolarRadiationWatts/m^2,SoftwareType,DateUTC
2013-01-15 00:01:00,35.0,35.0,-100.00,South,183,3.0,6.0,100,0.12,,,0.75,0.000000,,2013-01-15 05:01:00,
2013-01-15 00:22:00,35.0,35.0,-100.00,South,183,3.0,6.0,100,0.12,,,0.75,0.000000,,2013-01-15 05:22:00,
2013-01-15 00:33:00,35.0,35.0,-100.00,South,183,3.0,6.0,100,0.12,,,0.75,0.000000,,2013-01-15 05:33:00,
2013-01-15 00:42:00,35.0,35.0,-100.00,South,183,3.0,6.0,100,0.12,,,0.75,0.000000,,2013-01-15 05:42:00,
2013-01-15 00:53:00,35.0,35.0,-100.00,South,183,3.0,6.0,100,0.12,,,0.75,0.000000,,2013-01-15 05:53:00,
2013-01-15 01:01:00,35.0,35.0,-100.00,NNE,26,1.0,6.0,100,0.05,,,0.79,0.000000,,2013-01-15 06:01:00,
2013-01-15 01:22:00,35.0,35.0,-100.00,NNE,26,1.0,6.0,100,0.05,,,0.79,0.000000,,2013-01-15 06:22:00,
2013-01-15 01:33:00,35.0,35.0,-100.00,NNE,26,1.0,6.0,100,0.05,,,0.79,0.000000,,2013-01-15 06:33:00,
2013-01-15 01:43:00,35.0,35.0,-100.00,NNE,26,1.0,6.0,100,0.05,,,0.79,0.000000,,2013-01-15 06:43:00,
2013-01-15 01:53:00,35.0,35.0,-100.00,NNE,26,1.0,6.0,100,0.05,,,0.79,0.000000,,2013-01-15 06:53:00,
2013-01-15 02:01:00,35.0,35.0,-100.00,WNW,300,2.0,5.0,100,0.01,,,0.77,0.000000,,2013-01-15 07:01:00,
2013-01-15 02:33:00,35.0,35.0,-100.00,WNW,300,2.0,5.0,100,0.01,,,0.77,0.000000,,2013-01-15 07:33:00,
2013-01-15 02:43:00,35.0,35.0,-100.00,WNW,300,2.0,5.0,100,0.01,,,0.77,0.000000,,2013-01-15 07:43:00,
2013-01-15 02:53:00,35.0,35.0,-100.00,WNW,300,2.0,5.0,100,0.01,,,0.77,0.000000,,2013-01-15 07:53:00,
2013-01-15 03:01:00,36.0,36.0,-100.00,SW,228,3.0,5.0,100,0.00,,,0.76,0.000000,,2013-01-15 08:01:00,
2013-01-15 03:33:00,36.0,36.0,-100.00,SW,228,3.0,5.0,100,0.00,,,0.76,0.000000,,2013-01-15 08:33:00,
2013-01-15 03:43:00,36.0,36.0,-100.00,SW,228,3.0,5.0,100,0.00,,,0.76,0.000000,,2013-01-15 08:43:00,
2013-01-15 03:53:00,36.0,36.0,-100.00,SW,228,3.0,5.0,100,0.00,,,0.76,0.000000,,2013-01-15 08:53:00,
2013-01-15 04:01:00,36.0,36.0,-100.00,NNE,13,2.0,5.0,100,0.01,,,0.77,0.000000,,2013-01-15 09:01:00,
2013-01-15 04:33:00,36.0,36.0,-100.00,NNE,13,2.0,5.0,100,0.01,,,0.77,0.000000,,2013-01-15 09:33:00,
2013-01-15 04:43:00,36.0,36.0,-100.00,NNE,13,2.0,5.0,100,0.01,,,0.77,0.000000,,2013-01-15 09:43:00,
2013-01-15 04:52:00,36.0,36.0,-100.00,NNE,13,2.0,5.0,100,0.01,,,0.77,0.000000,,2013-01-15 09:52:00,
2013-01-15 05:01:00,36.0,36.0,-100.00,NE,44,5.0,6.0,100,0.01,,,0.78,0.000000,,2013-01-15 10:01:00,
2013-01-15 05:33:00,36.0,36.0,-100.00,NE,44,5.0,6.0,100,0.01,,,0.78,0.000000,,2013-01-15 10:33:00,
2013-01-15 05:42:00,36.0,36.0,-100.00,NE,44,5.0,6.0,100,0.01,,,0.78,0.000000,,2013-01-15 10:42:00,
2013-01-15 05:52:00,36.0,36.0,-100.00,NE,44,5.0,6.0,100,0.01,,,0.78,0.000000,,2013-01-15 10:52:00,
2013-01-15 06:01:00,36.0,36.0,-100.00,NE,46,5.0,6.0,100,0.03,,,0.81,0.000000,,2013-01-15 11:01:00,
2013-01-15 06:33:00,36.0,36.0,-100.00,NE,46,5.0,6.0,100,0.03,,,0.81,0.000000,,2013-01-15 11:33:00,
2013-01-15 06:43:00,36.0,36.0,-100.00,NE,46,5.0,6.0,100,0.03,,,0.81,0.000000,,2013-01-15 11:43:00,
2013-01-15 06:53:00,36.0,36.0,-100.00,NE,46,5.0,6.0,100,0.03,,,0.81,0.000000,,2013-01-15 11:53:00,
2013-01-15 07:01:00,37.0,37.0,-100.00,NE,47,3.0,6.0,100,0.02,,,0.83,0.000000,,2013-01-15 12:01:00,
2013-01-15 07:23:00,37.0,37.0,-100.00,NE,47,3.0,6.0,100,0.02,,,0.83,0.000000,,2013-01-15 12:23:00,
2013-01-15 07:33:00,37.0,37.0,-100.00,NE,47,3.0,6.0,100,0.02,,,0.83,0.000000,,2013-01-15 12:33:00,
2013-01-15 07:43:00,37.0,37.0,-100.00,NE,47,3.0,6.0,100,0.02,,,0.83,0.000000,,2013-01-15 12:43:00,
2013-01-15 07:53:00,37.0,37.0,-100.00,NE,47,3.0,6.0,100,0.02,,,0.83,0.000000,,2013-01-15 12:53:00,
2013-01-15 08:01:00,37.0,37.0,-100.00,NE,50,4.0,6.0,100,0.01,,,0.84,1.000000,,2013-01-15 13:01:00,
2013-01-15 08:33:00,37.0,37.0,-100.00,NE,50,4.0,6.0,100,0.01,,,0.84,1.000000,,2013-01-15 13:33:00,
2013-01-15 08:43:00,37.0,37.0,-100.00,NE,50,4.0,6.0,100,0.01,,,0.84,1.000000,,2013-01-15 13:43:00,
2013-01-15 08:53:00,37.0,37.0,-100.00,NE,50,4.0,6.0,100,0.01,,,0.84,1.000000,,2013-01-15 13:53:00,
2013-01-15 09:01:00,37.0,37.0,-100.00,NE,48,2.0,5.0,100,0.01,,,0.85,11.000000,,2013-01-15 14:01:00,
2013-01-15 09:33:00,37.0,37.0,-100.00,NE,48,2.0,5.0,100,0.01,,,0.85,11.000000,,2013-01-15 14:33:00,
2013-01-15 09:43:00,37.0,37.0,-100.00,NE,48,2.0,5.0,100,0.01,,,0.85,11.000000,,2013-01-15 14:43:00,
2013-01-15 09:54:00,37.0,37.0,-100.00,NE,48,2.0,5.0,100,0.01,,,0.85,11.000000,,2013-01-15 14:54:00,
2013-01-15 10:01:00,37.0,37.0,-100.00,SE,133,2.0,5.0,100,0.01,,,0.86,27.000000,,2013-01-15 15:01:00,
2013-01-15 10:33:00,37.0,37.0,-100.00,SE,133,2.0,5.0,100,0.01,,,0.86,27.000000,,2013-01-15 15:33:00,
2013-01-15 10:43:00,37.0,37.0,-100.00,SE,133,2.0,5.0,100,0.01,,,0.86,27.000000,,2013-01-15 15:43:00,
2013-01-15 10:53:00,37.0,37.0,-100.00,SE,133,2.0,5.0,100,0.01,,,0.86,27.000000,,2013-01-15 15:53:00,
2013-01-15 11:01:00,38.0,38.0,-100.00,SW,228,3.0,8.0,100,0.01,,,0.87,37.000000,,2013-01-15 16:01:00,
2013-01-15 11:33:00,38.0,38.0,-100.00,SW,228,3.0,8.0,100,0.01,,,0.87,37.000000,,2013-01-15 16:33:00,
2013-01-15 11:43:00,38.0,38.0,-100.00,SW,228,3.0,8.0,100,0.01,,,0.87,37.000000,,2013-01-15 16:43:00,
2013-01-15 11:53:00,38.0,38.0,-100.00,SW,228,3.0,8.0,100,0.01,,,0.87,37.000000,,2013-01-15 16:53:00,
2013-01-15 12:01:00,37.0,37.0,-100.00,WSW,249,2.0,10.0,100,0.00,,,0.87,42.000000,,2013-01-15 17:01:00,
2013-01-15 12:33:00,37.0,37.0,-100.00,WSW,249,2.0,10.0,100,0.00,,,0.87,42.000000,,2013-01-15 17:33:00,
2013-01-15 12:43:00,37.0,37.0,-100.00,WSW,249,2.0,10.0,100,0.00,,,0.87,42.000000,,2013-01-15 17:43:00,
2013-01-15 12:53:00,37.0,37.0,-100.00,WSW,249,2.0,10.0,100,0.00,,,0.87,42.000000,,2013-01-15 17:53:00,
2013-01-15 13:01:00,36.0,36.0,-100.00,SSW,203,3.0,8.0,100,0.01,,,0.88,49.000000,,2013-01-15 18:01:00,
2013-01-15 13:34:00,36.0,36.0,-100.00,SSW,203,3.0,8.0,100,0.01,,,0.88,49.000000,,2013-01-15 18:34:00,
2013-01-15 13:43:00,36.0,36.0,-100.00,SSW,203,3.0,8.0,100,0.01,,,0.88,49.000000,,2013-01-15 18:43:00,
2013-01-15 13:54:00,36.0,36.0,-100.00,SSW,203,3.0,8.0,100,0.01,,,0.88,49.000000,,2013-01-15 18:54:00,
2013-01-15 14:01:00,36.0,36.0,-100.00,SE,132,3.0,8.0,100,0.01,,,0.89,65.000000,,2013-01-15 19:01:00,
2013-01-15 14:33:00,36.0,36.0,-100.00,SE,132,3.0,8.0,100,0.01,,,0.89,65.000000,,2013-01-15 19:33:00,
2013-01-15 14:43:00,36.0,36.0,-100.00,SE,132,3.0,8.0,100,0.01,,,0.89,65.000000,,2013-01-15 19:43:00,
2013-01-15 14:53:00,36.0,36.0,-100.00,SE,132,3.0,8.0,100,0.01,,,0.89,65.000000,,2013-01-15 19:53:00,
2013-01-15 15:01:00,36.0,36.0,-100.00,South,178,4.0,6.0,100,0.01,,,0.90,94.000000,,2013-01-15 20:01:00,
2013-01-15 15:33:00,36.0,36.0,-100.00,South,178,4.0,6.0,100,0.01,,,0.90,94.000000,,2013-01-15 20:33:00,
2013-01-15 15:44:00,36.0,36.0,-100.00,South,178,4.0,6.0,100,0.01,,,0.90,94.000000,,2013-01-15 20:44:00,
2013-01-15 15:53:00,36.0,36.0,-100.00,South,178,4.0,6.0,100,0.01,,,0.90,94.000000,,2013-01-15 20:53:00,
2013-01-15 16:01:00,35.0,35.0,-100.00,South,174,4.0,7.0,100,0.00,,,0.90,47.000000,,2013-01-15 21:01:00,
2013-01-15 16:34:00,35.0,35.0,-100.00,South,174,4.0,7.0,100,0.00,,,0.90,47.000000,,2013-01-15 21:34:00,
2013-01-15 16:43:00,35.0,35.0,-100.00,South,174,4.0,7.0,100,0.00,,,0.90,47.000000,,2013-01-15 21:43:00,
2013-01-15 16:53:00,35.0,35.0,-100.00,South,174,4.0,7.0,100,0.00,,,0.90,47.000000,,2013-01-15 21:53:00,
2013-01-15 17:01:00,35.0,35.0,-100.00,South,184,5.0,10.0,100,0.01,,,0.91,10.000000,,2013-01-15 22:01:00,
2013-01-15 17:33:00,35.0,35.0,-100.00,South,184,5.0,10.0,100,0.01,,,0.91,10.000000,,2013-01-15 22:33:00,
2013-01-15 17:43:00,35.0,35.0,-100.00,South,184,5.0,10.0,100,0.01,,,0.91,10.000000,,2013-01-15 22:43:00,
2013-01-15 17:53:00,35.0,35.0,-100.00,South,184,5.0,10.0,100,0.01,,,0.91,10.000000,,2013-01-15 22:53:00,
2013-01-15 18:01:00,34.0,34.0,-100.00,SSE,158,3.0,10.0,100,0.21,,,1.10,0.000000,,2013-01-15 23:01:00,
2013-01-15 18:33:00,34.0,34.0,-100.00,SSE,158,3.0,10.0,100,0.21,,,1.10,0.000000,,2013-01-15 23:33:00,
2013-01-15 18:43:00,34.0,34.0,-100.00,SSE,158,3.0,10.0,100,0.21,,,1.10,0.000000,,2013-01-15 23:43:00,
2013-01-15 18:53:00,34.0,34.0,-100.00,SSE,158,3.0,10.0,100,0.21,,,1.10,0.000000,,2013-01-15 23:53:00,
2013-01-15 19:01:00,34.0,34.0,-100.00,NE,45,0.0,7.0,100,0.18,,,1.09,0.000000,,2013-01-16 00:01:00,
2013-01-15 19:23:00,34.0,34.0,-100.00,NE,45,0.0,7.0,100,0.18,,,1.09,0.000000,,2013-01-16 00:23:00,
2013-01-15 19:33:00,34.0,34.0,-100.00,NE,45,0.0,7.0,100,0.18,,,1.09,0.000000,,2013-01-16 00:33:00,
2013-01-15 19:43:00,34.0,34.0,-100.00,NE,45,0.0,7.0,100,0.18,,,1.09,0.000000,,2013-01-16 00:43:00,
2013-01-15 19:53:00,34.0,34.0,-100.00,NE,45,0.0,7.0,100,0.18,,,1.09,0.000000,,2013-01-16 00:53:00,
2013-01-15 20:01:00,34.0,34.0,-100.00,NW,325,3.0,7.0,100,0.17,,,1.13,0.000000,,2013-01-16 01:01:00,
2013-01-15 20:33:00,34.0,34.0,-100.00,NW,325,3.0,7.0,100,0.17,,,1.13,0.000000,,2013-01-16 01:33:00,
2013-01-15 20:43:00,34.0,34.0,-100.00,NW,325,3.0,7.0,100,0.17,,,1.13,0.000000,,2013-01-16 01:43:00,
2013-01-15 20:53:00,34.0,34.0,-100.00,NW,325,3.0,7.0,100,0.17,,,1.13,0.000000,,2013-01-16 01:53:00,
2013-01-15 21:01:00,34.0,34.0,-100.00,South,189,3.0,6.0,100,0.11,,,1.17,0.000000,,2013-01-16 02:01:00,
2013-01-15 21:33:00,34.0,34.0,-100.00,South,189,3.0,6.0,100,0.11,,,1.17,0.000000,,2013-01-16 02:33:00,
2013-01-15 21:43:00,34.0,34.0,-100.00,South,189,3.0,6.0,100,0.11,,,1.17,0.000000,,2013-01-16 02:43:00,
2013-01-15 21:53:00,34.0,34.0,-100.00,South,189,3.0,6.0,100,0.11,,,1.17,0.000000,,2013-01-16 02:53:00,
2013-01-15 22:01:00,33.0,33.0,-100.00,East,88,2.0,6.0,100,0.06,,,1.16,0.000000,,2013-01-16 03:01:00,
2013-01-15 22:23:00,33.0,33.0,-100.00,East,88,2.0,6.0,100,0.06,,,1.16,0.000000,,2013-01-16 03:23:00,
2013-01-15 22:33:00,33.0,33.0,-100.00,East,88,2.0,6.0,100,0.06,,,1.16,0.000000,,2013-01-16 03:33:00,
2013-01-15 22:43:00,33.0,33.0,-100.00,East,88,2.0,6.0,100,0.06,,,1.16,0.000000,,2013-01-16 03:43:00,
2013-01-15 22:53:00,33.0,33.0,-100.00,East,88,2.0,6.0,100,0.06,,,1.16,0.000000,,2013-01-16 03:53:00,
2013-01-15 23:01:00,33.0,33.0,-100.00,South,185,3.0,6.0,100,0.09,,,1.15,0.000000,,2013-01-16 04:01:00,
2013-01-15 23:33:00,33.0,33.0,-100.00,South,185,3.0,6.0,100,0.09,,,1.15,0.000000,,2013-01-16 04:33:00,
2013-01-15 23:42:00,33.0,33.0,-100.00,South,185,3.0,6.0,100,0.09,,,1.15,0.000000,,2013-01-16 04:42:00,
2013-01-15 23:53:00,33.0,33.0,-100.00,South,185,3.0,6.0,100,0.09,,,1.15,0.000000,,2013-01-16 04:53:00,